This is the latest recevied weather packets stored in our database for station/object KB3AWQ. If no packets are shown the sender has not sent any weather packets the latest 10 day(s).
| Time | Temp. | Humidity | Pressure | Rain* | Wind** | Luminosity | Snow |
|---|---|---|---|---|---|---|---|
| 1777914567 | 21.11° C | 44% | 1009.6 hPa | 0 mm | - | 513 W/m² | - |
| 1777914267 | 21.67° C | 44% | 1009.6 hPa | 0 mm | - | 682 W/m² | - |
| 1777913967 | 21.67° C | 45% | 1009.7 hPa | 0 mm | - | 590 W/m² | - |
| 1777913667 | 21.67° C | 44% | 1009.8 hPa | 0 mm | - | 670 W/m² | - |
| 1777913366 | 22.22° C | 43% | 1009.8 hPa | 0 mm | - | 972 W/m² | - |
| 1777913067 | 22.22° C | 44% | 1009.9 hPa | 0 mm | - | 954 W/m² | - |
| 1777912767 | 22.22° C | 44% | 1009.9 hPa | 0 mm | - | 946 W/m² | - |
| 1777912467 | 21.67° C | 46% | 1010 hPa | 0 mm | - | 918 W/m² | - |
| 1777912166 | 21.11° C | 47% | 1010 hPa | 0 mm | - | 940 W/m² | - |
| 1777911867 | 20.56° C | 47% | 1010.1 hPa | 0 mm | - | 927 W/m² | - |
| 1777911566 | 20° C | 48% | 1010.2 hPa | 0 mm | - | 927 W/m² | - |
| 1777911266 | 19.44° C | 48% | 1010.3 hPa | 0 mm | - | 923 W/m² | - |
| 1777910967 | 18.89° C | 47% | 1010.5 hPa | 0 mm | - | 920 W/m² | - |
| 1777910667 | 18.33° C | 47% | 1010.6 hPa | 0 mm | - | 922 W/m² | - |
| 1777910368 | 18.33° C | 49% | 1010.8 hPa | 0 mm | - | 452 W/m² | - |
| 1777910067 | 18.33° C | 50% | 1010.8 hPa | 0 mm | - | 614 W/m² | - |
| 1777909767 | 18.33° C | 49% | 1010.9 hPa | 0 mm | - | 444 W/m² | - |
| 1777909466 | 18.33° C | 48% | 1011.1 hPa | 0 mm | - | 703 W/m² | - |
| 1777909167 | 17.78° C | 47% | 1011.2 hPa | 0 mm | - | 773 W/m² | - |
| 1777908866 | 17.22° C | 51% | 1011.2 hPa | 0 mm | - | 992 W/m² | - |
| 1777908567 | 16.67° C | 52% | 1011.3 hPa | 0 mm | - | 990 W/m² | - |
| 1777908268 | 16.67° C | 50% | 1011.5 hPa | 0 mm | - | 531 W/m² | - |
| 1777907968 | 16.67° C | 52% | 1011.5 hPa | 0 mm | - | 870 W/m² | - |
| 1777907668 | 16.67° C | 52% | 1011.5 hPa | 0 mm | - | 780 W/m² | - |
| 1777907367 | 16.67° C | 50% | 1011.6 hPa | 0 mm | - | 837 W/m² | - |
* Rain latest hour (hover to see other rain measurements)
** Current wind speed in m/s (hover to see current wind gust speed)